Puerto Banus, Marbella

>

This is an optional block (switch it off / on) in the settings - file ($SITE['banners'] = false;)

You can display ads, any other important text or photo’s using text / html or PHP code.

You can place one or more at the top and or bottom and it can all be different for content / size .



Meteosat more information blitzortung!


Radar lluvias  rain snow radar


Visita nuestra red de sitios de meteo:

Documentation for the template used

MeteoibericaRed estaciones Meteorologicas

MeteoclimaticRed estaciones Meteorologicas



Sin Advertencias climatologicas .En este momento tenemos Nivel Verde.    No hay Alarmas

Pagina Historial Weather Underground texto

Diario Resumen January 4, 2016 Unidades:  Métrico    impérial   Tanto
« Anterior Dia
Siguiente Dia »
Diario Semana Mensual Anual Personalizada
  Maxima: Minima: Media:
Temperatura: 19.3 °C 16.8 °C 18.2 °C
Punto de rocío: 15.8 °C 13.0 °C 14.7 °C
Humedad: 92 % 71 % 80 %
Velocidad del Viento: 38.6 km/h 4.8 km/h 22.4 km/h
Ráfagas de viento: 53.1 km/h - -
Viento:- - West
Pression baro: 1017.8 hPa 1010.0 hPa -
Précipitaciones: 0.0 mm    
Historical Graphs
 
 
Datos de tabla para January 4, 2016
Tiempo Temperatura Punto de rocío Pression baro Viento Velocidad del Viento Ráfagas de viento Humedad Las precipitaciones Rate ( Hora )
00:04 18.0 °C 15.3 °C 1017.8 hPa West 25.7 km/h 37.0 km/h 84 % 0.0 mm
00:09 18.0 °C 15.3 °C 1017.8 hPa West 25.7 km/h 37.0 km/h 84 % 0.0 mm
00:14 18.1 °C 15.5 °C 1017.8 hPa West 25.7 km/h 37.0 km/h 85 % 0.0 mm
00:19 18.1 °C 15.5 °C 1017.5 hPa West 27.4 km/h 35.4 km/h 85 % 0.0 mm
00:24 18.1 °C 15.6 °C 1017.5 hPa West 27.4 km/h 37.0 km/h 85 % 0.0 mm
00:29 18.2 °C 15.4 °C 1017.5 hPa West 27.4 km/h 33.8 km/h 84 % 0.0 mm
00:34 18.1 °C 15.6 °C 1017.2 hPa West 27.4 km/h 43.4 km/h 85 % 0.0 mm
00:39 17.9 °C 15.4 °C 1017.2 hPa West 29.0 km/h 43.4 km/h 85 % 0.0 mm
00:44 17.9 °C 15.5 °C 1017.2 hPa West 29.0 km/h 40.2 km/h 86 % 0.0 mm
00:49 17.9 °C 15.3 °C 1017.2 hPa West 25.7 km/h 40.2 km/h 85 % 0.0 mm
00:54 17.9 °C 15.3 °C 1017.2 hPa West 29.0 km/h 49.9 km/h 85 % 0.0 mm
00:59 17.8 °C 15.3 °C 1017.2 hPa West 14.5 km/h 37.0 km/h 85 % 0.0 mm
01:04 17.8 °C 15.3 °C 1017.5 hPa West 32.2 km/h 40.2 km/h 85 % 0.0 mm
01:09 17.8 °C 15.4 °C 1017.5 hPa West 32.2 km/h 45.1 km/h 86 % 0.0 mm
01:14 17.7 °C 15.3 °C 1017.5 hPa West 32.2 km/h 38.6 km/h 86 % 0.0 mm
01:19 17.7 °C 15.3 °C 1017.2 hPa West 27.4 km/h 45.1 km/h 86 % 0.0 mm
01:24 17.6 °C 15.2 °C 1017.2 hPa West 29.0 km/h 43.4 km/h 86 % 0.0 mm
01:29 17.6 °C 15.3 °C 1017.2 hPa WSW 27.4 km/h 40.2 km/h 86 % 0.0 mm
01:39 17.7 °C 15.3 °C 1016.8 hPa WSW 35.4 km/h 46.7 km/h 86 % 0.0 mm
01:44 17.7 °C 15.3 °C 1016.8 hPa WSW 27.4 km/h 48.3 km/h 86 % 0.0 mm
01:49 17.7 °C 15.3 °C 1016.8 hPa WSW 33.8 km/h 45.1 km/h 86 % 0.0 mm
01:54 17.7 °C 15.3 °C 1016.8 hPa WSW 32.2 km/h 43.4 km/h 86 % 0.0 mm
01:59 17.7 °C 15.3 °C 1016.8 hPa WSW 32.2 km/h 41.8 km/h 86 % 0.0 mm
02:04 17.7 °C 15.3 °C 1016.8 hPa WSW 32.2 km/h 45.1 km/h 86 % 0.0 mm
02:09 17.7 °C 15.3 °C 1016.8 hPa WSW 35.4 km/h 49.9 km/h 86 % 0.0 mm
02:14 17.6 °C 15.4 °C 1016.8 hPa WSW 33.8 km/h 40.2 km/h 87 % 0.0 mm
02:19 17.6 °C 15.4 °C 1016.8 hPa WSW 32.2 km/h 38.6 km/h 87 % 0.0 mm
02:24 17.5 °C 15.3 °C 1016.5 hPa WSW 32.2 km/h 43.4 km/h 87 % 0.0 mm
02:34 17.5 °C 15.5 °C 1016.5 hPa WSW 32.2 km/h 40.2 km/h 88 % 0.0 mm
02:39 17.5 °C 15.5 °C 1016.8 hPa WSW 27.4 km/h 41.8 km/h 88 % 0.0 mm
02:44 17.5 °C 15.5 °C 1016.5 hPa WSW 29.0 km/h 40.2 km/h 88 % 0.0 mm
02:49 17.4 °C 15.4 °C 1016.5 hPa WSW 24.1 km/h 32.2 km/h 88 % 0.0 mm
02:54 17.3 °C 15.5 °C 1016.8 hPa WSW 27.4 km/h 33.8 km/h 89 % 0.0 mm
02:59 17.3 °C 15.4 °C 1016.5 hPa West 29.0 km/h 40.2 km/h 89 % 0.0 mm
03:04 17.2 °C 15.6 °C 1016.5 hPa WSW 29.0 km/h 41.8 km/h 90 % 0.0 mm
03:09 17.2 °C 15.6 °C 1016.5 hPa WSW 29.0 km/h 38.6 km/h 90 % 0.0 mm
03:14 17.2 °C 15.6 °C 1016.5 hPa WSW 25.7 km/h 38.6 km/h 90 % 0.0 mm
03:19 17.2 °C 15.6 °C 1016.5 hPa WSW 24.1 km/h 40.2 km/h 90 % 0.0 mm
03:24 17.3 °C 15.6 °C 1016.5 hPa West 19.3 km/h 33.8 km/h 90 % 0.0 mm
03:29 17.4 °C 15.6 °C 1016.5 hPa West 20.9 km/h 25.7 km/h 89 % 0.0 mm
03:34 17.6 °C 15.6 °C 1016.5 hPa West 12.9 km/h 22.5 km/h 88 % 0.0 mm
03:39 17.7 °C 15.5 °C 1016.5 hPa West 16.1 km/h 25.7 km/h 87 % 0.0 mm
03:44 17.7 °C 15.3 °C 1016.1 hPa West 14.5 km/h 25.7 km/h 86 % 0.0 mm
03:49 17.8 °C 15.4 °C 1016.5 hPa West 14.5 km/h 22.5 km/h 86 % 0.0 mm
03:54 17.8 °C 15.3 °C 1016.5 hPa West 14.5 km/h 24.1 km/h 85 % 0.0 mm
03:59 17.8 °C 15.1 °C 1016.5 hPa West 19.3 km/h 27.4 km/h 84 % 0.0 mm
04:04 17.9 °C 15.1 °C 1016.5 hPa West 19.3 km/h 24.1 km/h 84 % 0.0 mm
04:09 17.9 °C 14.9 °C 1016.1 hPa West 16.1 km/h 22.5 km/h 83 % 0.0 mm
04:14 17.9 °C 14.8 °C 1016.1 hPa West 16.1 km/h 22.5 km/h 82 % 0.0 mm
04:19 18.0 °C 14.7 °C 1016.1 hPa West 12.9 km/h 20.9 km/h 81 % 0.0 mm
04:24 18.1 °C 14.6 °C 1016.1 hPa West 12.9 km/h 19.3 km/h 80 % 0.0 mm
04:29 18.2 °C 14.3 °C 1016.1 hPa West 14.5 km/h 20.9 km/h 78 % 0.0 mm
04:34 18.3 °C 14.2 °C 1016.1 hPa West 12.9 km/h 20.9 km/h 77 % 0.0 mm
04:39 18.4 °C 14.1 °C 1016.1 hPa West 19.3 km/h 25.7 km/h 76 % 0.0 mm
04:44 18.4 °C 14.3 °C 1016.1 hPa West 22.5 km/h 29.0 km/h 77 % 0.0 mm
04:49 18.2 °C 14.3 °C 1015.8 hPa West 20.9 km/h 27.4 km/h 78 % 0.0 mm
04:54 18.1 °C 14.2 °C 1015.8 hPa West 22.5 km/h 29.0 km/h 78 % 0.0 mm
04:59 18.1 °C 14.2 °C 1015.8 hPa West 22.5 km/h 29.0 km/h 78 % 0.0 mm
05:04 18.2 °C 14.4 °C 1015.8 hPa West 19.3 km/h 29.0 km/h 79 % 0.0 mm
05:09 18.2 °C 14.4 °C 1015.8 hPa West 20.9 km/h 27.4 km/h 79 % 0.0 mm
05:14 18.2 °C 14.5 °C 1016.1 hPa West 20.9 km/h 32.2 km/h 79 % 0.0 mm
05:19 18.2 °C 14.5 °C 1016.1 hPa West 20.9 km/h 32.2 km/h 79 % 0.0 mm
05:24 18.1 °C 14.7 °C 1015.8 hPa WSW 25.7 km/h 37.0 km/h 81 % 0.0 mm
05:29 17.8 °C 14.7 °C 1015.8 hPa West 27.4 km/h 33.8 km/h 82 % 0.0 mm
05:34 17.7 °C 14.7 °C 1015.8 hPa West 25.7 km/h 38.6 km/h 83 % 0.0 mm
05:39 17.6 °C 14.8 °C 1015.8 hPa West 20.9 km/h 38.6 km/h 84 % 0.0 mm
05:44 17.5 °C 14.8 °C 1015.8 hPa West 25.7 km/h 38.6 km/h 84 % 0.0 mm
05:49 17.5 °C 14.9 °C 1015.5 hPa West 25.7 km/h 38.6 km/h 85 % 0.0 mm
05:54 17.4 °C 14.8 °C 1015.5 hPa West 29.0 km/h 43.4 km/h 85 % 0.0 mm
05:59 17.3 °C 14.9 °C 1015.5 hPa West 27.4 km/h 40.2 km/h 86 % 0.0 mm
06:04 17.2 °C 14.8 °C 1015.1 hPa West 27.4 km/h 38.6 km/h 86 % 0.0 mm
06:09 17.2 °C 15.0 °C 1015.5 hPa West 27.4 km/h 41.8 km/h 87 % 0.0 mm
06:14 17.2 °C 15.0 °C 1015.1 hPa West 29.0 km/h 40.2 km/h 87 % 0.0 mm
06:19 17.2 °C 14.8 °C 1015.1 hPa West 27.4 km/h 40.2 km/h 86 % 0.0 mm
06:24 17.3 °C 14.9 °C 1015.1 hPa West 35.4 km/h 45.1 km/h 86 % 0.0 mm
06:29 17.4 °C 14.8 °C 1015.1 hPa West 24.1 km/h 41.8 km/h 85 % 0.0 mm
06:34 17.5 °C 14.7 °C 1015.1 hPa West 29.0 km/h 43.4 km/h 84 % 0.0 mm
06:39 17.6 °C 14.8 °C 1015.1 hPa West 27.4 km/h 46.7 km/h 84 % 0.0 mm
06:44 17.6 °C 14.7 °C 1014.8 hPa West 24.1 km/h 43.4 km/h 83 % 0.0 mm
06:49 17.6 °C 14.7 °C 1014.8 hPa West 29.0 km/h 41.8 km/h 83 % 0.0 mm
06:54 17.6 °C 14.7 °C 1014.8 hPa West 32.2 km/h 38.6 km/h 83 % 0.0 mm
06:59 17.6 °C 14.6 °C 1015.1 hPa West 32.2 km/h 41.8 km/h 83 % 0.0 mm
07:09 17.6 °C 14.7 °C 1015.1 hPa West 29.0 km/h 38.6 km/h 83 % 0.0 mm
07:14 17.6 °C 14.9 °C 1015.1 hPa West 25.7 km/h 33.8 km/h 84 % 0.0 mm
07:19 17.7 °C 14.9 °C 1015.1 hPa West 29.0 km/h 37.0 km/h 84 % 0.0 mm
07:24 17.7 °C 14.8 °C 1015.1 hPa WSW 29.0 km/h 43.4 km/h 83 % 0.0 mm
07:29 17.7 °C 14.9 °C 1015.1 hPa West 27.4 km/h 41.8 km/h 84 % 0.0 mm
07:34 17.6 °C 14.9 °C 1015.1 hPa WSW 27.4 km/h 37.0 km/h 84 % 0.0 mm
07:39 17.6 °C 14.8 °C 1015.1 hPa West 27.4 km/h 33.8 km/h 84 % 0.0 mm
07:44 17.5 °C 14.9 °C 1015.1 hPa West 25.7 km/h 37.0 km/h 85 % 0.0 mm
07:49 17.4 °C 15.1 °C 1015.1 hPa West 27.4 km/h 37.0 km/h 86 % 0.0 mm
07:54 17.4 °C 15.0 °C 1015.1 hPa West 20.9 km/h 37.0 km/h 86 % 0.0 mm
07:59 17.4 °C 15.0 °C 1015.1 hPa West 25.7 km/h 33.8 km/h 86 % 0.0 mm
08:04 17.3 °C 15.1 °C 1015.1 hPa WSW 25.7 km/h 35.4 km/h 87 % 0.0 mm
08:09 17.2 °C 15.2 °C 1015.1 hPa West 25.7 km/h 38.6 km/h 88 % 0.0 mm
08:14 17.1 °C 15.1 °C 1015.1 hPa West 29.0 km/h 40.2 km/h 88 % 0.0 mm
08:19 16.9 °C 15.1 °C 1015.1 hPa West 25.7 km/h 33.8 km/h 89 % 0.0 mm
08:24 16.9 °C 15.1 °C 1015.1 hPa West 25.7 km/h 35.4 km/h 89 % 0.0 mm
08:29 16.9 °C 15.3 °C 1014.8 hPa West 29.0 km/h 38.6 km/h 90 % 0.0 mm
08:34 17.0 °C 15.3 °C 1014.8 hPa West 24.1 km/h 32.2 km/h 90 % 0.0 mm
08:39 17.1 °C 15.3 °C 1014.8 hPa West 24.1 km/h 32.2 km/h 89 % 0.0 mm
08:44 17.3 °C 15.4 °C 1014.8 hPa West 25.7 km/h 32.2 km/h 89 % 0.0 mm
08:49 17.4 °C 15.4 °C 1014.8 hPa WSW 29.0 km/h 35.4 km/h 88 % 0.0 mm
08:54 17.6 °C 15.3 °C 1014.8 hPa West 25.7 km/h 37.0 km/h 87 % 0.0 mm
08:59 17.6 °C 15.4 °C 1014.8 hPa WSW 27.4 km/h 38.6 km/h 87 % 0.0 mm
09:04 17.5 °C 15.3 °C 1015.1 hPa WSW 32.2 km/h 45.1 km/h 87 % 0.0 mm
09:09 17.5 °C 15.3 °C 1015.1 hPa WSW 32.2 km/h 45.1 km/h 87 % 0.0 mm
09:14 17.6 °C 15.4 °C 1015.1 hPa WSW 33.8 km/h 41.8 km/h 87 % 0.0 mm
09:19 17.4 °C 15.2 °C 1015.1 hPa WSW 32.2 km/h 41.8 km/h 87 % 0.0 mm
09:24 17.3 °C 15.3 °C 1015.1 hPa WSW 32.2 km/h 49.9 km/h 88 % 0.0 mm
09:29 17.1 °C 15.3 °C 1015.1 hPa WSW 29.0 km/h 41.8 km/h 89 % 0.0 mm
09:34 17.0 °C 15.3 °C 1015.5 hPa WSW 25.7 km/h 41.8 km/h 90 % 0.0 mm
09:39 16.9 °C 15.2 °C 1015.5 hPa WSW 22.5 km/h 38.6 km/h 90 % 0.0 mm
09:44 16.9 °C 15.4 °C 1015.1 hPa West 27.4 km/h 40.2 km/h 91 % 0.0 mm
09:49 16.9 °C 15.4 °C 1015.1 hPa West 22.5 km/h 35.4 km/h 91 % 0.0 mm
09:54 16.8 °C 15.3 °C 1015.5 hPa West 20.9 km/h 32.2 km/h 91 % 0.0 mm
09:59 16.8 °C 15.5 °C 1015.5 hPa West 24.1 km/h 45.1 km/h 92 % 0.0 mm
10:04 16.9 °C 15.6 °C 1015.1 hPa West 20.9 km/h 35.4 km/h 92 % 0.0 mm
10:09 17.0 °C 15.5 °C 1015.1 hPa West 24.1 km/h 33.8 km/h 91 % 0.0 mm
10:14 17.1 °C 15.7 °C 1015.1 hPa West 24.1 km/h 35.4 km/h 91 % 0.0 mm
10:19 17.3 °C 15.7 °C 1015.1 hPa West 24.1 km/h 32.2 km/h 90 % 0.0 mm
10:24 17.4 °C 15.8 °C 1015.1 hPa WSW 22.5 km/h 32.2 km/h 90 % 0.0 mm
10:29 17.6 °C 15.7 °C 1015.1 hPa WSW 25.7 km/h 38.6 km/h 89 % 0.0 mm
10:34 17.7 °C 15.5 °C 1015.1 hPa WSW 32.2 km/h 40.2 km/h 87 % 0.0 mm
10:39 17.9 °C 15.5 °C 1015.1 hPa WSW 35.4 km/h 45.1 km/h 86 % 0.0 mm
10:44 17.9 °C 15.5 °C 1015.1 hPa WSW 37.0 km/h 49.9 km/h 86 % 0.0 mm
10:49 17.9 °C 15.4 °C 1015.5 hPa WSW 33.8 km/h 43.4 km/h 85 % 0.0 mm
10:54 18.3 °C 15.6 °C 1015.5 hPa WSW 27.4 km/h 41.8 km/h 84 % 0.0 mm
10:59 18.3 °C 15.4 °C 1015.5 hPa WSW 27.4 km/h 40.2 km/h 83 % 0.0 mm
11:04 18.1 °C 15.3 °C 1015.5 hPa WSW 33.8 km/h 41.8 km/h 84 % 0.0 mm
11:09 17.8 °C 15.3 °C 1015.5 hPa WSW 32.2 km/h 41.8 km/h 85 % 0.0 mm
11:19 17.4 °C 15.3 °C 1015.5 hPa WSW 29.0 km/h 45.1 km/h 87 % 0.0 mm
11:24 17.2 °C 15.2 °C 1015.5 hPa WSW 29.0 km/h 40.2 km/h 88 % 0.0 mm
11:29 17.1 °C 15.4 °C 1015.5 hPa WSW 32.2 km/h 43.4 km/h 90 % 0.0 mm
11:34 17.0 °C 15.3 °C 1015.5 hPa WSW 32.2 km/h 43.4 km/h 90 % 0.0 mm
11:39 17.1 °C 15.4 °C 1015.5 hPa WSW 29.0 km/h 41.8 km/h 90 % 0.0 mm
11:44 17.2 °C 15.5 °C 1015.5 hPa WSW 25.7 km/h 45.1 km/h 90 % 0.0 mm
11:49 17.3 °C 15.5 °C 1015.1 hPa WSW 32.2 km/h 41.8 km/h 89 % 0.0 mm
11:54 17.5 °C 15.5 °C 1015.1 hPa WSW 35.4 km/h 48.3 km/h 88 % 0.0 mm
11:59 17.7 °C 15.5 °C 1014.8 hPa WSW 27.4 km/h 38.6 km/h 87 % 0.0 mm
12:04 17.9 °C 15.6 °C 1014.8 hPa WSW 29.0 km/h 37.0 km/h 86 % 0.0 mm
12:09 18.2 °C 15.4 °C 1014.8 hPa WSW 25.7 km/h 35.4 km/h 84 % 0.0 mm
12:14 18.3 °C 15.3 °C 1014.8 hPa WSW 32.2 km/h 46.7 km/h 83 % 0.0 mm
12:19 18.3 °C 15.3 °C 1014.8 hPa WSW 37.0 km/h 51.5 km/h 83 % 0.0 mm
12:24 18.3 °C 15.3 °C 1014.8 hPa WSW 35.4 km/h 51.5 km/h 83 % 0.0 mm
12:29 18.3 °C 15.4 °C 1014.8 hPa WSW 38.6 km/h 49.9 km/h 83 % 0.0 mm
12:34 18.2 °C 15.3 °C 1014.8 hPa WSW 33.8 km/h 48.3 km/h 83 % 0.0 mm
12:39 18.2 °C 15.2 °C 1014.4 hPa WSW 35.4 km/h 45.1 km/h 83 % 0.0 mm
12:44 18.3 °C 15.4 °C 1014.4 hPa WSW 24.1 km/h 40.2 km/h 83 % 0.0 mm
12:49 18.5 °C 15.4 °C 1014.4 hPa WSW 25.7 km/h 38.6 km/h 82 % 0.0 mm
12:54 18.7 °C 15.3 °C 1014.1 hPa West 27.4 km/h 37.0 km/h 81 % 0.0 mm
12:59 18.8 °C 15.3 °C 1014.1 hPa West 25.7 km/h 38.6 km/h 80 % 0.0 mm
13:04 18.9 °C 15.2 °C 1013.8 hPa WSW 22.5 km/h 38.6 km/h 79 % 0.0 mm
13:09 19.1 °C 15.3 °C 1013.8 hPa West 25.7 km/h 43.4 km/h 79 % 0.0 mm
13:14 19.1 °C 15.3 °C 1013.8 hPa WSW 29.0 km/h 37.0 km/h 79 % 0.0 mm
13:19 19.0 °C 15.3 °C 1013.8 hPa WSW 33.8 km/h 43.4 km/h 79 % 0.0 mm
13:24 18.7 °C 15.4 °C 1013.4 hPa WSW 35.4 km/h 45.1 km/h 81 % 0.0 mm
13:29 18.3 °C 15.4 °C 1013.8 hPa WSW 29.0 km/h 46.7 km/h 83 % 0.0 mm
13:34 18.1 °C 15.4 °C 1013.4 hPa WSW 24.1 km/h 41.8 km/h 84 % 0.0 mm
13:39 18.0 °C 15.4 °C 1013.4 hPa WSW 20.9 km/h 35.4 km/h 85 % 0.0 mm
13:44 18.0 °C 15.6 °C 1013.1 hPa WSW 20.9 km/h 29.0 km/h 86 % 0.0 mm
13:54 17.9 °C 15.5 °C 1013.1 hPa WSW 19.3 km/h 20.9 km/h 86 % 0.0 mm
14:04 18.1 °C 15.3 °C 1013.1 hPa WSW 14.5 km/h 22.5 km/h 84 % 0.0 mm
14:09 18.3 °C 15.3 °C 1013.1 hPa West 20.9 km/h 29.0 km/h 83 % 0.0 mm
14:14 18.7 °C 15.0 °C 1012.8 hPa West 14.5 km/h 33.8 km/h 79 % 0.0 mm
14:19 18.9 °C 14.8 °C 1012.8 hPa West 11.3 km/h 22.5 km/h 77 % 0.0 mm
14:24 19.2 °C 14.4 °C 1013.1 hPa WNW 24.1 km/h 43.4 km/h 74 % 0.0 mm
14:29 19.3 °C 14.1 °C 1012.8 hPa West 22.5 km/h 32.2 km/h 72 % 0.0 mm
14:39 19.3 °C 13.9 °C 1012.4 hPa WNW 16.1 km/h 19.3 km/h 71 % 0.0 mm
14:44 19.3 °C 13.9 °C 1012.4 hPa WNW 16.1 km/h 19.3 km/h 71 % 0.0 mm
14:49 19.3 °C 13.9 °C 1012.4 hPa WNW 16.1 km/h 19.3 km/h 71 % 0.0 mm
14:54 19.3 °C 13.9 °C 1012.4 hPa WNW 16.1 km/h 19.3 km/h 71 % 0.0 mm
14:59 19.3 °C 13.9 °C 1012.4 hPa WNW 16.1 km/h 19.3 km/h 71 % 0.0 mm
15:04 19.3 °C 13.9 °C 1012.4 hPa WNW 16.1 km/h 19.3 km/h 71 % 0.0 mm
15:09 19.3 °C 13.9 °C 1012.4 hPa WNW 16.1 km/h 19.3 km/h 71 % 0.0 mm
15:14 19.3 °C 13.9 °C 1012.4 hPa WNW 16.1 km/h 19.3 km/h 71 % 0.0 mm
15:19 19.3 °C 13.9 °C 1012.4 hPa WNW 16.1 km/h 19.3 km/h 71 % 0.0 mm
15:24 19.3 °C 13.9 °C 1012.4 hPa WNW 16.1 km/h 19.3 km/h 71 % 0.0 mm
15:29 19.3 °C 13.9 °C 1012.4 hPa WNW 16.1 km/h 19.3 km/h 71 % 0.0 mm
15:34 19.3 °C 13.9 °C 1012.4 hPa WNW 16.1 km/h 19.3 km/h 71 % 0.0 mm
15:39 19.3 °C 13.9 °C 1012.4 hPa WNW 16.1 km/h 19.3 km/h 71 % 0.0 mm
15:44 19.3 °C 13.9 °C 1012.4 hPa WNW 16.1 km/h 19.3 km/h 71 % 0.0 mm
15:49 19.3 °C 13.9 °C 1012.4 hPa WNW 16.1 km/h 19.3 km/h 71 % 0.0 mm
15:54 19.3 °C 13.9 °C 1012.4 hPa WNW 16.1 km/h 19.3 km/h 71 % 0.0 mm
15:59 19.3 °C 13.9 °C 1012.4 hPa WNW 16.1 km/h 19.3 km/h 71 % 0.0 mm
16:04 19.3 °C 13.9 °C 1012.4 hPa WNW 16.1 km/h 19.3 km/h 71 % 0.0 mm
16:09 19.3 °C 13.9 °C 1012.4 hPa WNW 16.1 km/h 19.3 km/h 71 % 0.0 mm
16:14 19.3 °C 13.9 °C 1012.4 hPa WNW 16.1 km/h 19.3 km/h 71 % 0.0 mm
16:19 19.3 °C 13.9 °C 1012.4 hPa WNW 16.1 km/h 19.3 km/h 71 % 0.0 mm
16:24 19.3 °C 13.9 °C 1012.4 hPa WNW 16.1 km/h 19.3 km/h 71 % 0.0 mm
16:29 19.3 °C 13.9 °C 1012.4 hPa WNW 16.1 km/h 19.3 km/h 71 % 0.0 mm
16:34 19.3 °C 13.9 °C 1012.4 hPa WNW 16.1 km/h 19.3 km/h 71 % 0.0 mm
16:39 19.3 °C 13.9 °C 1012.4 hPa WNW 16.1 km/h 19.3 km/h 71 % 0.0 mm
16:44 19.3 °C 13.9 °C 1012.4 hPa WNW 16.1 km/h 19.3 km/h 71 % 0.0 mm
16:49 19.3 °C 13.9 °C 1012.4 hPa WNW 16.1 km/h 19.3 km/h 71 % 0.0 mm
16:54 19.3 °C 13.9 °C 1012.4 hPa WNW 16.1 km/h 19.3 km/h 71 % 0.0 mm
16:59 19.3 °C 13.9 °C 1012.4 hPa WNW 16.1 km/h 19.3 km/h 71 % 0.0 mm
17:04 19.3 °C 13.9 °C 1012.4 hPa WNW 16.1 km/h 19.3 km/h 71 % 0.0 mm
17:09 19.3 °C 13.9 °C 1012.4 hPa WNW 16.1 km/h 19.3 km/h 71 % 0.0 mm
17:14 19.3 °C 13.9 °C 1012.4 hPa WNW 16.1 km/h 19.3 km/h 71 % 0.0 mm
17:19 19.3 °C 13.9 °C 1012.4 hPa WNW 16.1 km/h 19.3 km/h 71 % 0.0 mm
17:24 19.3 °C 13.9 °C 1012.4 hPa WNW 16.1 km/h 19.3 km/h 71 % 0.0 mm
17:29 19.3 °C 13.9 °C 1012.4 hPa WNW 16.1 km/h 19.3 km/h 71 % 0.0 mm
17:34 19.3 °C 13.9 °C 1012.4 hPa WNW 16.1 km/h 19.3 km/h 71 % 0.0 mm
17:39 19.3 °C 13.9 °C 1012.4 hPa WNW 16.1 km/h 19.3 km/h 71 % 0.0 mm
17:44 19.3 °C 13.9 °C 1012.4 hPa WNW 16.1 km/h 19.3 km/h 71 % 0.0 mm
17:49 19.3 °C 13.9 °C 1012.4 hPa WNW 16.1 km/h 19.3 km/h 71 % 0.0 mm
17:54 19.3 °C 13.9 °C 1012.4 hPa WNW 16.1 km/h 19.3 km/h 71 % 0.0 mm
17:59 19.3 °C 13.9 °C 1012.4 hPa WNW 16.1 km/h 19.3 km/h 71 % 0.0 mm
18:04 19.3 °C 13.9 °C 1012.4 hPa WNW 16.1 km/h 19.3 km/h 71 % 0.0 mm
18:09 19.3 °C 13.9 °C 1012.4 hPa WNW 16.1 km/h 19.3 km/h 71 % 0.0 mm
18:14 19.3 °C 13.9 °C 1012.4 hPa WNW 16.1 km/h 19.3 km/h 71 % 0.0 mm
18:19 19.3 °C 13.9 °C 1012.4 hPa WNW 16.1 km/h 19.3 km/h 71 % 0.0 mm
18:24 19.3 °C 13.9 °C 1012.4 hPa WNW 16.1 km/h 19.3 km/h 71 % 0.0 mm
18:34 19.3 °C 13.9 °C 1012.4 hPa WNW 16.1 km/h 19.3 km/h 71 % 0.0 mm
18:39 19.3 °C 13.9 °C 1012.4 hPa WNW 16.1 km/h 19.3 km/h 71 % 0.0 mm
18:44 19.3 °C 13.9 °C 1012.4 hPa WNW 16.1 km/h 19.3 km/h 71 % 0.0 mm
18:49 19.3 °C 13.9 °C 1012.4 hPa WNW 16.1 km/h 19.3 km/h 71 % 0.0 mm
18:54 19.3 °C 13.9 °C 1012.4 hPa WNW 16.1 km/h 19.3 km/h 71 % 0.0 mm
19:04 19.3 °C 13.9 °C 1012.4 hPa WNW 16.1 km/h 19.3 km/h 71 % 0.0 mm
19:09 19.3 °C 13.9 °C 1012.4 hPa WNW 16.1 km/h 19.3 km/h 71 % 0.0 mm
19:14 19.3 °C 13.9 °C 1012.4 hPa WNW 16.1 km/h 19.3 km/h 71 % 0.0 mm
19:19 19.3 °C 13.9 °C 1012.4 hPa WNW 16.1 km/h 19.3 km/h 71 % 0.0 mm
19:24 19.3 °C 13.9 °C 1012.4 hPa WNW 16.1 km/h 19.3 km/h 71 % 0.0 mm
19:29 19.3 °C 13.9 °C 1012.4 hPa WNW 16.1 km/h 19.3 km/h 71 % 0.0 mm
19:34 19.3 °C 13.9 °C 1012.4 hPa WNW 16.1 km/h 19.3 km/h 71 % 0.0 mm
19:39 19.3 °C 13.9 °C 1012.4 hPa WNW 16.1 km/h 19.3 km/h 71 % 0.0 mm
19:44 19.3 °C 13.9 °C 1012.4 hPa WNW 16.1 km/h 19.3 km/h 71 % 0.0 mm
19:49 19.3 °C 13.9 °C 1012.4 hPa WNW 16.1 km/h 19.3 km/h 71 % 0.0 mm
19:54 19.3 °C 13.9 °C 1012.4 hPa WNW 16.1 km/h 19.3 km/h 71 % 0.0 mm
19:59 19.3 °C 13.9 °C 1012.4 hPa WNW 16.1 km/h 19.3 km/h 71 % 0.0 mm
20:04 19.3 °C 13.9 °C 1012.4 hPa WNW 16.1 km/h 19.3 km/h 71 % 0.0 mm
20:09 19.3 °C 13.9 °C 1012.4 hPa WNW 16.1 km/h 19.3 km/h 71 % 0.0 mm
20:14 19.3 °C 13.9 °C 1012.4 hPa WNW 16.1 km/h 19.3 km/h 71 % 0.0 mm
20:19 19.3 °C 13.9 °C 1012.4 hPa WNW 16.1 km/h 19.3 km/h 71 % 0.0 mm
20:24 19.3 °C 13.9 °C 1012.4 hPa WNW 16.1 km/h 19.3 km/h 71 % 0.0 mm
20:29 19.3 °C 13.9 °C 1012.4 hPa WNW 16.1 km/h 19.3 km/h 71 % 0.0 mm
20:34 19.3 °C 13.9 °C 1012.4 hPa WNW 16.1 km/h 19.3 km/h 71 % 0.0 mm
20:39 19.3 °C 13.9 °C 1012.4 hPa WNW 16.1 km/h 19.3 km/h 71 % 0.0 mm
20:44 19.3 °C 13.9 °C 1012.4 hPa WNW 16.1 km/h 19.3 km/h 71 % 0.0 mm
20:54 19.3 °C 13.9 °C 1012.4 hPa WNW 16.1 km/h 19.3 km/h 71 % 0.0 mm
20:59 19.3 °C 13.9 °C 1012.4 hPa WNW 16.1 km/h 19.3 km/h 71 % 0.0 mm
21:04 19.3 °C 13.9 °C 1012.4 hPa WNW 16.1 km/h 19.3 km/h 71 % 0.0 mm
21:09 19.3 °C 13.9 °C 1012.4 hPa WNW 16.1 km/h 19.3 km/h 71 % 0.0 mm
21:14 19.3 °C 13.9 °C 1012.4 hPa WNW 16.1 km/h 19.3 km/h 71 % 0.0 mm
21:19 19.3 °C 13.9 °C 1012.4 hPa WNW 16.1 km/h 19.3 km/h 71 % 0.0 mm
21:24 19.3 °C 13.9 °C 1012.4 hPa WNW 16.1 km/h 19.3 km/h 71 % 0.0 mm
21:29 19.3 °C 13.9 °C 1012.4 hPa WNW 16.1 km/h 19.3 km/h 71 % 0.0 mm
21:34 19.3 °C 13.9 °C 1012.4 hPa WNW 16.1 km/h 19.3 km/h 71 % 0.0 mm
21:39 19.3 °C 13.9 °C 1012.4 hPa WNW 16.1 km/h 19.3 km/h 71 % 0.0 mm
21:44 19.3 °C 13.9 °C 1012.4 hPa WNW 16.1 km/h 19.3 km/h 71 % 0.0 mm
21:49 19.3 °C 13.9 °C 1012.4 hPa WNW 16.1 km/h 19.3 km/h 71 % 0.0 mm
21:54 19.3 °C 13.9 °C 1012.4 hPa WNW 16.1 km/h 19.3 km/h 71 % 0.0 mm
21:59 19.3 °C 13.9 °C 1012.4 hPa WNW 16.1 km/h 19.3 km/h 71 % 0.0 mm
22:04 19.3 °C 13.9 °C 1012.4 hPa WNW 16.1 km/h 19.3 km/h 71 % 0.0 mm
22:14 19.3 °C 13.9 °C 1012.4 hPa WNW 16.1 km/h 19.3 km/h 71 % 0.0 mm
22:29 18.5 °C 13.2 °C 1010.7 hPa West 16.1 km/h 53.1 km/h 71 % 0.0 mm
22:34 18.3 °C 13.2 °C 1010.7 hPa West 12.9 km/h 25.7 km/h 72 % 0.0 mm
22:39 18.2 °C 13.3 °C 1010.7 hPa West 11.3 km/h 22.5 km/h 73 % 0.0 mm
22:44 18.1 °C 13.6 °C 1010.7 hPa WSW 22.5 km/h 32.2 km/h 75 % 0.0 mm
22:49 17.9 °C 13.6 °C 1010.7 hPa WSW 29.0 km/h 40.2 km/h 76 % 0.0 mm
22:54 17.5 °C 13.8 °C 1010.7 hPa WSW 25.7 km/h 37.0 km/h 79 % 0.0 mm
22:59 17.2 °C 13.9 °C 1010.7 hPa WSW 22.5 km/h 33.8 km/h 81 % 0.0 mm
23:04 17.0 °C 13.9 °C 1010.7 hPa West 25.7 km/h 33.8 km/h 82 % 0.0 mm
23:09 16.9 °C 13.8 °C 1010.7 hPa West 16.1 km/h 29.0 km/h 82 % 0.0 mm
23:14 16.8 °C 13.9 °C 1010.7 hPa West 16.1 km/h 24.1 km/h 83 % 0.0 mm
23:19 16.9 °C 14.0 °C 1010.7 hPa West 14.5 km/h 29.0 km/h 83 % 0.0 mm
23:24 17.0 °C 13.9 °C 1010.7 hPa West 14.5 km/h 20.9 km/h 82 % 0.0 mm
23:29 17.1 °C 13.8 °C 1010.7 hPa West 9.7 km/h 19.3 km/h 81 % 0.0 mm
23:39 17.2 °C 13.7 °C 1010.4 hPa West 4.8 km/h 12.9 km/h 80 % 0.0 mm
23:44 17.2 °C 13.3 °C 1010.4 hPa WSW 11.3 km/h 16.1 km/h 78 % 0.0 mm
23:49 17.3 °C 13.3 °C 1010.4 hPa WSW 9.7 km/h 19.3 km/h 77 % 0.0 mm
23:54 17.5 °C 13.0 °C 1010.4 hPa WSW 16.1 km/h 24.1 km/h 75 % 0.0 mm
23:59 17.7 °C 13.2 °C 1010.0 hPa West 14.5 km/h 24.1 km/h 75 % 0.0 mm
Puerto Banus, Marbella
Elogios de Weather Underground - 2 mb

Guión original por  Jim McMurry - jmcmurry@mwt.net Adaptado para la plantilla por  Wim van der Kuil - Leuven-Template.eu

Usted encontrará nuestra información del tiempo también en:

Weather Underground

Iberian Peninsula Weather Network